Simultaneous Nadir Overpasses (SNOs) Predictions

Prediction of SNOs between GOES-16 and NPP Satellite Orbit:

Table of predicted SNOs for the next 14.0 days since TLE Epoch: 7/29/2023
Index Date Time (GOES-16) GOES-16 Lat,Lon NPP Lat,Lon Distance(km) Time Diff (sec)
1 07/29/2023 06:33:51 -0.02, -75.21 0.26, -76.47 144.25 80
2 07/30/2023 06:12:27 -0.01, -75.21 -0.76, -71.95 371.99 80
3 07/31/2023 18:34:23 0.01, -75.21 -0.43, -77.26 232.85 80
4 08/01/2023 18:18:17 0.01, -75.21 0.54, -72.72 283.80 80
5 08/03/2023 06:40:06 -0.01, -75.22 0.59, -78.00 315.92 80
6 08/04/2023 06:18:40 -0.00, -75.23 -0.38, -73.46 201.20 80
7 08/05/2023 18:40:37 0.00, -75.24 -0.80, -78.77 402.24 80
8 08/06/2023 18:24:32 0.00, -75.26 0.23, -74.24 115.42 80
9 08/08/2023 06:46:19 -0.00, -75.28 0.95, -79.52 482.71 80
10 08/09/2023 06:24:55 0.00, -75.30 -0.08, -74.99 35.21 80
11 08/11/2023 18:28:06 -0.01, -75.33 -0.12, -75.76 49.09 80
